SV3BEF-4 Korifi GR current weather conditions

sailwx.info

Wind from 215

Air temperature 26.7° C

Last reported at 2019-Sep-20 11:01 UTC.
Time now 2019-Sep-20 11:53 UTC

Location: N 37°40' E 021°26'.
View on Google Maps.

See reports from other nearby stations

  
Tides and Currents Weather Stations Pressure Air Temp Water Temp Dewpoint Dewpoint Depression Visibility Wind Speed Wind Dir Waves Ship Positions
date/time (UTC)wind fromknots sea level pressurealtimeterstation pressurevisibilityair tempwater tempwave heightnotes
2019-Sep-20 11:01 215 26.7
2019-Sep-20 10:56 235 27.2
2019-Sep-20 10:51 215 0 gusting 6 26.7
2019-Sep-20 10:46 155 0 26.7
2019-Sep-20 10:41 233 0 26.7
2019-Sep-20 10:36 201 2 26.7
2019-Sep-20 10:31 239 26.7
2019-Sep-20 10:26 240 1 gusting 4 26.7
2019-Sep-20 10:21 266 4 26.7
2019-Sep-20 10:16 187 26.7
2019-Sep-20 10:11 214 26.7
2019-Sep-20 10:06 221 26.1
2019-Sep-20 10:01 243 26.1
2019-Sep-20 09:56 187 1 26.1
2019-Sep-20 09:51 212 26.1
2019-Sep-20 09:46 212 1 26.1
2019-Sep-20 09:41 160 25.6
2019-Sep-20 09:36 207 25.6
2019-Sep-20 09:31 207 0 25.6
2019-Sep-20 09:26 239 25.6
2019-Sep-20 09:20 239 25.6
2019-Sep-20 09:15 252 1 gusting 5 25.6
2019-Sep-20 09:10 222 25.6
2019-Sep-20 09:05 222 25.0
2019-Sep-20 09:00 222 25.6
2019-Sep-20 08:55 222 0 25.0
2019-Sep-20 08:50 181 25.0
2019-Sep-20 08:45 181 25.0
2019-Sep-20 08:40 163 24.4
2019-Sep-20 08:35 163 24.4
2019-Sep-20 08:30 097 25.0
2019-Sep-20 08:25 097 24.4
2019-Sep-20 08:20 097 24.4
2019-Sep-20 08:15 097 23.9
2019-Sep-20 08:10 097 23.9
2019-Sep-20 08:05 097 23.9
2019-Sep-20 08:00 097 23.9
2019-Sep-20 07:55 097 23.9
2019-Sep-20 07:50 097 23.9
2019-Sep-20 07:45 097 23.3
2019-Sep-20 07:40 097 23.3
2019-Sep-20 07:35 097 23.3
2019-Sep-20 07:30 097 23.3
2019-Sep-20 07:25 097 23.3
2019-Sep-20 07:15 065 22.8
2019-Sep-20 07:10 065 22.8
2019-Sep-20 07:05 065 22.8
2019-Sep-20 07:00 065 23.3
2019-Sep-20 06:55 065 22.8
2019-Sep-20 06:49 065 22.8
2019-Sep-20 06:44 065 22.8
2019-Sep-20 06:39 065 22.2
2019-Sep-20 06:34 065 22.2
2019-Sep-20 06:29 065 21.7
2019-Sep-20 06:24 065 21.7
2019-Sep-20 06:19 065 21.7
2019-Sep-20 06:14 065 21.7
2019-Sep-20 06:09 065 21.7
2019-Sep-20 06:04 065 21.1
2019-Sep-20 05:59 065 21.1
2019-Sep-20 05:54 065 21.1
2019-Sep-20 05:49 065 21.7
2019-Sep-20 05:44 065 21.1
2019-Sep-20 05:39 065 20.6
2019-Sep-20 05:34 065 20.6
2019-Sep-20 05:29 065 20.6
2019-Sep-20 05:24 065 20.6
2019-Sep-20 05:19 065 20.6
2019-Sep-20 05:14 065 20.6
2019-Sep-20 05:09 065 20.6
2019-Sep-20 05:04 065 20.6
2019-Sep-20 04:59 065 20.6
2019-Sep-20 04:54 065 20.6
2019-Sep-20 04:49 065 20.6
2019-Sep-20 04:44 065 20.6
2019-Sep-20 04:39 065 20.6
2019-Sep-20 04:34 065 20.6
2019-Sep-20 04:29 065 20.6
2019-Sep-20 04:24 065 21.1
2019-Sep-20 04:18 065 21.1
2019-Sep-20 04:13 065 21.7
2019-Sep-20 04:08 065 21.1
2019-Sep-20 04:03 065 21.1
2019-Sep-20 03:58 065 21.1
2019-Sep-20 03:53 065 21.1
2019-Sep-20 03:48 065 21.1
2019-Sep-20 03:43 066 21.1
2019-Sep-20 03:38 066 21.1
2019-Sep-20 03:33 066 21.1
2019-Sep-20 03:28 066 21.1
2019-Sep-20 03:23 066 21.1
2019-Sep-20 03:18 066 21.1
2019-Sep-20 03:13 066 21.1
2019-Sep-20 03:08 066 21.1
2019-Sep-20 03:03 066 21.1
2019-Sep-20 02:58 066 21.1
2019-Sep-20 02:53 066 0 21.1
2019-Sep-20 02:48 108 21.1
2019-Sep-20 02:43 108 21.7
2019-Sep-20 02:38 103 21.7
2019-Sep-20 02:33 103 21.7
2019-Sep-20 02:28 103 21.7
2019-Sep-20 02:23 103 21.7
2019-Sep-20 02:18 103 21.7
2019-Sep-20 02:13 103 21.7
2019-Sep-20 02:08 103 21.1
2019-Sep-20 02:03 103 21.1
2019-Sep-20 01:58 103 21.7
2019-Sep-20 01:53 103 22.2
2019-Sep-20 01:48 103 22.2
2019-Sep-20 01:42 103 22.2
2019-Sep-20 01:37 103 22.2
2019-Sep-20 01:32 103 22.2
2019-Sep-20 01:27 103 21.7
2019-Sep-20 01:22 103 22.2
2019-Sep-20 01:17 103 22.2
2019-Sep-20 01:12 103 22.2
2019-Sep-20 01:07 103 22.2
2019-Sep-20 01:02 103 22.2
2019-Sep-20 00:57 103 22.2
2019-Sep-20 00:52 103 22.2
2019-Sep-20 00:47 103 22.2
2019-Sep-20 00:42 103 22.2
2019-Sep-20 00:37 103 22.2
2019-Sep-20 00:32 103 22.2
2019-Sep-20 00:27 103 22.2
2019-Sep-20 00:22 103 22.2
2019-Sep-20 00:17 103 22.2
2019-Sep-20 00:12 103 22.8
2019-Sep-20 00:07 103 22.8
2019-Sep-20 00:02 103 22.8
2019-Sep-19 23:57 103 22.8
2019-Sep-19 23:52 103 22.8
2019-Sep-19 23:47 103 22.8
2019-Sep-19 23:42 103 22.8
2019-Sep-19 23:37 103 22.8
2019-Sep-19 23:32 103 22.8
2019-Sep-19 23:27 103 22.8
2019-Sep-19 23:22 103 22.8
2019-Sep-19 23:17 103 22.8
2019-Sep-19 23:11 103 22.8
2019-Sep-19 23:06 055 22.8
2019-Sep-19 23:01 087 22.8
2019-Sep-19 22:56 056 23.3
2019-Sep-19 22:51 194 22.8
2019-Sep-19 22:46 194 22.8
2019-Sep-19 22:41 194 22.8
2019-Sep-19 22:36 194 22.8
2019-Sep-19 22:31 194 22.8
2019-Sep-19 22:26 194 22.8
2019-Sep-19 22:21 194 22.8
2019-Sep-19 22:16 194 22.8
2019-Sep-19 22:11 194 22.8
2019-Sep-19 22:06 194 22.8
2019-Sep-19 22:01 194 22.8
2019-Sep-19 21:56 194 22.8
2019-Sep-19 21:51 194 22.8
2019-Sep-19 21:46 194 22.8
2019-Sep-19 21:41 194 22.8
2019-Sep-19 21:36 194 22.8
2019-Sep-19 21:31 194 22.8
2019-Sep-19 21:26 194 22.8
2019-Sep-19 21:21 194 23.3
2019-Sep-19 21:16 194 23.3
2019-Sep-19 21:11 194 23.3
2019-Sep-19 21:06 194 23.3
2019-Sep-19 21:01 194 22.8
2019-Sep-19 20:56 194 22.8
2019-Sep-19 20:51 194 22.8
2019-Sep-19 20:46 194 23.3
2019-Sep-19 20:40 194 23.3
2019-Sep-19 20:35 194 22.8
2019-Sep-19 20:30 194 23.3
2019-Sep-19 20:25 194 23.3
2019-Sep-19 20:20 194 22.8
2019-Sep-19 20:15 194 22.8
2019-Sep-19 20:10 194 22.8
2019-Sep-19 20:05 194 22.8
2019-Sep-19 20:00 194 22.8
2019-Sep-19 19:55 194 22.8
2019-Sep-19 19:50 194 23.3
2019-Sep-19 19:45 194 23.3
2019-Sep-19 19:40 194 23.9
2019-Sep-19 19:35 194 23.9
2019-Sep-19 19:30 194 23.9
2019-Sep-19 19:25 194 23.9
2019-Sep-19 19:20 194 23.9
2019-Sep-19 19:15 194 23.9
2019-Sep-19 19:10 194 23.9
2019-Sep-19 19:05 194 23.9
2019-Sep-19 19:00 194 23.9
2019-Sep-19 18:55 194 23.9
2019-Sep-19 18:50 194 23.9
2019-Sep-19 18:45 194 23.9
2019-Sep-19 18:40 194 24.4
2019-Sep-19 18:35 194 24.4
2019-Sep-19 18:30 194 24.4
2019-Sep-19 18:25 194 23.9
2019-Sep-19 18:20 194 24.4
2019-Sep-19 18:15 194 24.4
2019-Sep-19 18:09 194 24.4
2019-Sep-19 18:04 194 24.4
2019-Sep-19 17:54 194 24.4
2019-Sep-19 17:49 194 25.0
2019-Sep-19 17:44 194 25.0
2019-Sep-19 17:39 194 25.0
2019-Sep-19 17:34 194 25.0
2019-Sep-19 17:29 194 25.0
2019-Sep-19 17:24 194 25.0
2019-Sep-19 17:19 194 25.0
2019-Sep-19 17:14 194 25.0
2019-Sep-19 17:09 194 25.0
2019-Sep-19 17:04 194 25.6
2019-Sep-19 16:59 194 25.6
2019-Sep-19 16:54 194 25.0
2019-Sep-19 16:49 194 25.0
2019-Sep-19 16:44 194 25.6
2019-Sep-19 16:39 194 25.6
2019-Sep-19 16:34 194 25.6
2019-Sep-19 16:29 235 25.6
2019-Sep-19 16:24 235 25.6
2019-Sep-19 16:19 205 25.6
2019-Sep-19 16:14 269 0 25.6
2019-Sep-19 16:09 242 25.6
2019-Sep-19 16:04 239 3 gusting 4 26.1
2019-Sep-19 15:59 257 26.1
2019-Sep-19 15:54 226 26.1
2019-Sep-19 15:49 197 26.1
2019-Sep-19 15:44 285 26.1
2019-Sep-19 15:39 285 26.1
2019-Sep-19 15:33 217 26.1
2019-Sep-19 15:28 225 1 26.1
2019-Sep-19 15:23 212 26.1
2019-Sep-19 15:18 193 3 26.7
2019-Sep-19 15:13 253 0 26.1
2019-Sep-19 15:08 263 1 26.1
2019-Sep-19 15:03 203 2 gusting 4 26.7
2019-Sep-19 14:58 249 26.7
2019-Sep-19 14:53 232 0 26.7
2019-Sep-19 14:48 211 2 26.1
2019-Sep-19 14:43 233 6 gusting 3 26.7
2019-Sep-19 14:38 245 1 gusting 6 26.7
2019-Sep-19 14:33 219 3 gusting 4 26.7
2019-Sep-19 14:28 239 6 gusting 5 26.7
2019-Sep-19 14:23 194 2 gusting 2 26.7
2019-Sep-19 14:18 242 26.7
2019-Sep-19 14:13 239 1 gusting 2 26.7
2019-Sep-19 14:08 228 2 gusting 3 26.7
2019-Sep-19 14:03 236 0 gusting 5 26.7
2019-Sep-19 13:58 264 5 gusting 6 26.7
2019-Sep-19 13:53 222 5 gusting 2 26.7
2019-Sep-19 13:48 207 2 gusting 2 26.7
2019-Sep-19 13:43 198 2 27.2
2019-Sep-19 13:38 194 2 27.2
2019-Sep-19 13:33 246 3 27.2
2019-Sep-19 13:28 240 27.2
2019-Sep-19 13:23 278 27.2
2019-Sep-19 13:18 181 2 gusting 2 27.2
2019-Sep-19 13:13 236 27.2
2019-Sep-19 13:08 201 2 27.2
2019-Sep-19 13:02 225 4 27.2
2019-Sep-19 12:57 217 3 gusting 1 27.2
2019-Sep-19 12:52 190 2 gusting 5 27.2
2019-Sep-19 12:47 270 1 27.8
2019-Sep-19 12:42 235 3 gusting 3 27.8
2019-Sep-19 12:37 148 2 gusting 2 27.2
2019-Sep-19 12:32 207 2 27.2
2019-Sep-19 12:27 173 0 27.2
2019-Sep-19 12:22 246 4 27.8
2019-Sep-19 12:17 200 27.8
2019-Sep-19 12:12 253 1 gusting 3 27.8
2019-Sep-19 12:07 290 1 27.8
2019-Sep-19 12:02 188 3 27.8
2019-Sep-19 11:57 186 0 27.8
2019-Sep-19 11:52 218 27.2
2019-Sep-19 11:47 250 2 27.8
2019-Sep-19 11:42 214 3 gusting 5 27.8
2019-Sep-19 11:37 219 2 gusting 2 27.8
2019-Sep-19 11:32 179 5 gusting 2 27.8
2019-Sep-19 11:27 239 2 gusting 5 27.8
2019-Sep-19 11:22 255 0 gusting 6 27.8
2019-Sep-19 11:17 219 4 27.8
2019-Sep-19 11:12 198 0 gusting 4 27.8
2019-Sep-19 11:07 224 27.8
2019-Sep-19 11:02 177 0 27.8
2019-Sep-19 10:57 204 3 gusting 5 27.8
2019-Sep-19 10:52 238 0 27.8
2019-Sep-19 10:47 187 1 27.8
2019-Sep-19 10:42 271 0 27.2
2019-Sep-19 10:37 194 27.2
2019-Sep-19 10:32 194 0 27.2
2019-Sep-19 10:26 218 1 27.2
2019-Sep-19 10:21 221 26.7
2019-Sep-19 10:16 246 27.2
2019-Sep-19 10:11 246 0 27.2
2019-Sep-19 10:06 233 26.7
2019-Sep-19 10:01 233 27.2
2019-Sep-19 09:56 239 27.2
2019-Sep-19 09:51 186 27.2
2019-Sep-19 09:46 200 26.7
2019-Sep-19 09:41 200 26.7
2019-Sep-19 09:36 198 26.7
2019-Sep-19 09:31 225 26.7
2019-Sep-19 09:26 212 26.7
2019-Sep-19 09:21 212 0 26.7
2019-Sep-19 09:16 233 26.7
2019-Sep-19 09:11 239 26.7
2019-Sep-19 09:06 239 0 26.1
2019-Sep-19 09:01 204 26.1
2019-Sep-19 08:56 245 26.1
2019-Sep-19 08:51 212 26.1
2019-Sep-19 08:46 228 26.1
2019-Sep-19 08:41 252 1 gusting 2 26.1
2019-Sep-19 08:36 235 1 25.6
2019-Sep-19 08:31 200 0 25.6
2019-Sep-19 08:26 046 25.6
2019-Sep-19 08:21 046 25.0
2019-Sep-19 08:16 046 25.0
2019-Sep-19 08:11 046 25.0
2019-Sep-19 08:06 046 25.0
2019-Sep-19 08:01 046 25.0
2019-Sep-19 07:55 046 24.4
2019-Sep-19 07:50 046 24.4
2019-Sep-19 07:45 046 24.4
2019-Sep-19 07:40 046 23.9
2019-Sep-19 07:35 046 23.9
2019-Sep-19 07:30 046 23.9
2019-Sep-19 07:25 046 23.9
2019-Sep-19 07:20 046 23.3
2019-Sep-19 07:15 046 23.3
2019-Sep-19 07:10 046 23.3
2019-Sep-19 07:05 046 23.3
2019-Sep-19 07:00 046 23.3
2019-Sep-19 06:55 046 22.8
2019-Sep-19 06:50 066 22.8
2019-Sep-19 06:45 066 22.8
2019-Sep-19 06:40 066 22.8
2019-Sep-19 06:35 066 22.8
2019-Sep-19 06:30 066 22.8
2019-Sep-19 06:25 066 22.8
2019-Sep-19 06:20 111 22.8
2019-Sep-19 06:15 111 22.2
2019-Sep-19 06:10 086 22.2
2019-Sep-19 06:05 086 22.2
2019-Sep-19 06:00 125 22.2
2019-Sep-19 05:55 125 21.7
2019-Sep-19 05:50 062 21.7
2019-Sep-19 05:45 062 21.1
2019-Sep-19 05:40 062 21.1
2019-Sep-19 05:35 062 0 21.1
2019-Sep-19 05:30 098 20.6
2019-Sep-19 05:24 098 20.6
2019-Sep-19 05:19 256 20.0
2019-Sep-19 05:14 256 20.0
2019-Sep-19 05:09 256 19.4
2019-Sep-19 05:04 256 19.4
2019-Sep-19 04:59 256 19.4
2019-Sep-19 04:54 256 19.4
2019-Sep-19 04:49 256 19.4
2019-Sep-19 04:44 256 18.9
2019-Sep-19 04:39 256 19.4
2019-Sep-19 04:34 256 19.4
2019-Sep-19 04:29 256 19.4
2019-Sep-19 04:24 256 19.4
2019-Sep-19 04:19 256 19.4
2019-Sep-19 04:14 256 19.4
2019-Sep-19 04:09 256 19.4
2019-Sep-19 04:04 256 18.9
2019-Sep-19 03:59 256 18.9
2019-Sep-19 03:54 256 19.4
2019-Sep-19 03:49 256 19.4
2019-Sep-19 03:44 256 19.4
2019-Sep-19 03:39 256 19.4
2019-Sep-19 03:34 256 19.4
2019-Sep-19 03:29 256 19.4
2019-Sep-19 03:24 256 19.4
2019-Sep-19 03:19 256 19.4
2019-Sep-19 03:14 256 19.4
2019-Sep-19 03:09 256 20.0
2019-Sep-19 03:04 256 20.0
2019-Sep-19 02:59 256 20.0
2019-Sep-19 02:53 256 20.0
2019-Sep-19 02:48 256 20.6
2019-Sep-19 02:43 256 20.6
2019-Sep-19 02:38 256 20.6
2019-Sep-19 02:33 256 20.0
2019-Sep-19 02:28 256 20.0
2019-Sep-19 02:23 256 20.0
2019-Sep-19 02:18 256 20.0
2019-Sep-19 02:13 256 20.0
2019-Sep-19 02:08 256 20.0
2019-Sep-19 02:03 256 20.0
2019-Sep-19 01:58 256 20.0
2019-Sep-19 01:53 256 20.0
2019-Sep-19 01:48 256 20.0
2019-Sep-19 01:43 256 20.0
2019-Sep-19 01:38 256 20.0
2019-Sep-19 01:33 256 20.6
2019-Sep-19 01:28 256 20.0
2019-Sep-19 01:23 256 20.0
2019-Sep-19 01:18 256 20.6
2019-Sep-19 01:13 256 20.6
2019-Sep-19 01:08 256 21.1
2019-Sep-19 01:03 256 21.1
2019-Sep-19 00:58 256 21.1
2019-Sep-19 00:53 256 21.1
2019-Sep-19 00:48 256 21.1
2019-Sep-19 00:43 256 21.1
2019-Sep-19 00:38 256 21.1
2019-Sep-19 00:33 256 21.1
2019-Sep-19 00:28 256 21.1
2019-Sep-19 00:23 256 21.1
2019-Sep-19 00:17 256 21.1
2019-Sep-19 00:12 256 21.1
2019-Sep-19 00:07 256 21.1
2019-Sep-19 00:02 256 21.1
2019-Sep-18 23:57 256 21.1
2019-Sep-18 23:47 256 21.1
2019-Sep-18 23:42 256 21.1
2019-Sep-18 23:37 256 21.1
2019-Sep-18 23:32 256 21.1
2019-Sep-18 23:27 256 21.1
2019-Sep-18 23:22 256 21.1
2019-Sep-18 23:17 256 21.1
2019-Sep-18 23:12 256 21.1
2019-Sep-18 23:07 256 21.1
2019-Sep-18 23:02 256 21.7
2019-Sep-18 22:57 256 21.7
2019-Sep-18 22:52 256 21.1
2019-Sep-18 22:47 256 21.7
2019-Sep-18 22:42 256 21.7
2019-Sep-18 22:37 256 21.7
2019-Sep-18 22:32 256 21.7
2019-Sep-18 22:27 256 22.2
2019-Sep-18 22:22 256 22.2
2019-Sep-18 22:17 256 22.2
2019-Sep-18 22:12 256 22.2
2019-Sep-18 22:07 256 22.2
2019-Sep-18 22:02 256 22.2
2019-Sep-18 21:57 256 22.8
2019-Sep-18 21:52 256 22.8
2019-Sep-18 21:46 256 22.8
2019-Sep-18 21:41 256 22.8
2019-Sep-18 21:36 256 22.8
2019-Sep-18 21:31 256 22.8
2019-Sep-18 21:26 256 22.8
2019-Sep-18 21:21 256 22.8
2019-Sep-18 21:16 256 22.8
2019-Sep-18 21:11 256 22.8
2019-Sep-18 21:06 256 23.3
2019-Sep-18 21:01 256 22.8
2019-Sep-18 20:56 256 22.8
2019-Sep-18 20:51 256 22.8
2019-Sep-18 20:46 256 22.8
2019-Sep-18 20:41 256 23.3
2019-Sep-18 20:36 256 22.8
2019-Sep-18 20:31 256 22.8
2019-Sep-18 20:26 256 22.8
2019-Sep-18 20:21 256 23.3
2019-Sep-18 20:16 256 22.8
2019-Sep-18 20:11 256 23.3
2019-Sep-18 20:06 256 23.3
2019-Sep-18 20:01 256 23.3
2019-Sep-18 19:56 256 23.3
2019-Sep-18 19:51 256 23.9
2019-Sep-18 19:46 256 23.3
2019-Sep-18 19:41 256 23.3
2019-Sep-18 19:36 256 23.3
2019-Sep-18 19:31 256 23.3
2019-Sep-18 19:26 256 23.3
2019-Sep-18 19:21 256 23.9
2019-Sep-18 19:16 256 23.9
2019-Sep-18 19:10 256 23.3
2019-Sep-18 19:05 256 23.9
2019-Sep-18 19:00 256 23.9
2019-Sep-18 18:55 256 23.9
2019-Sep-18 18:50 256 23.9
2019-Sep-18 18:45 256 23.9
2019-Sep-18 18:40 256 23.9
2019-Sep-18 18:35 256 23.9
2019-Sep-18 18:30 256 23.9
2019-Sep-18 18:25 256 23.9
2019-Sep-18 18:20 256 23.9
2019-Sep-18 18:15 256 24.4
2019-Sep-18 18:10 256 24.4
2019-Sep-18 18:05 256 24.4
2019-Sep-18 18:00 256 24.4
2019-Sep-18 17:55 256 24.4
2019-Sep-18 17:50 256 24.4
2019-Sep-18 17:45 256 24.4
2019-Sep-18 17:40 256 24.4
2019-Sep-18 17:35 256 24.4
2019-Sep-18 17:30 256 25.0
2019-Sep-18 17:25 256 25.0
2019-Sep-18 17:20 256 25.0
2019-Sep-18 17:15 256 25.0
2019-Sep-18 17:10 256 25.6
2019-Sep-18 17:05 256 25.6
2019-Sep-18 17:00 256 25.6
2019-Sep-18 16:55 256 25.6
2019-Sep-18 16:50 256 25.6
2019-Sep-18 16:45 256 25.6
2019-Sep-18 16:39 256 25.6
2019-Sep-18 16:34 256 26.1
2019-Sep-18 16:29 256 26.1
2019-Sep-18 16:24 256 26.1
2019-Sep-18 16:19 256 26.1
2019-Sep-18 16:14 256 26.1
2019-Sep-18 16:09 256 0 26.1
2019-Sep-18 16:04 249 26.7
2019-Sep-18 15:59 249 26.7
2019-Sep-18 15:54 249 26.7
2019-Sep-18 15:49 249 26.7
2019-Sep-18 15:44 249 26.7
2019-Sep-18 15:39 249 26.7
2019-Sep-18 15:34 200 0 gusting 3 26.7
2019-Sep-18 15:29 204 26.7
2019-Sep-18 15:24 221 26.7
2019-Sep-18 15:19 219 26.7
2019-Sep-18 15:14 219 26.7
2019-Sep-18 15:09 219 26.7
2019-Sep-18 15:04 219 26.7
2019-Sep-18 14:59 221 26.7
2019-Sep-18 14:54 221 26.7
2019-Sep-18 14:49 221 0 26.7
2019-Sep-18 14:44 257 0 26.7
2019-Sep-18 14:39 184 0 26.7
2019-Sep-18 14:34 255 0 26.7
2019-Sep-18 14:29 238 3 26.7
2019-Sep-18 14:24 218 0 26.7
2019-Sep-18 14:19 214 0 gusting 5 26.7
2019-Sep-18 14:14 179 3 26.7
2019-Sep-18 14:08 219 1 gusting 3 27.2
2019-Sep-18 14:03 225 2 27.2
2019-Sep-18 13:58 214 3 gusting 4 27.2
2019-Sep-18 13:53 243 1 27.2
2019-Sep-18 13:48 217 2 27.2
2019-Sep-18 13:43 240 27.2
2019-Sep-18 13:38 242 4 27.2
2019-Sep-18 13:33 181 2 27.2
2019-Sep-18 13:28 181 5 27.2
2019-Sep-18 13:23 224 0 gusting 4 27.2
2019-Sep-18 13:18 222 2 gusting 5 27.2
2019-Sep-18 13:13 200 1 27.8
2019-Sep-18 13:08 248 2 27.8
2019-Sep-18 13:03 191 27.8
2019-Sep-18 12:58 236 28.3
2019-Sep-18 12:53 225 1 gusting 2 28.3
2019-Sep-18 12:48 249 0 28.3
2019-Sep-18 12:43 169 0 28.3
2019-Sep-18 12:38 208 28.3
2019-Sep-18 12:33 129 28.3
2019-Sep-18 12:28 221 0 gusting 5 28.3
2019-Sep-18 12:23 191 28.3
2019-Sep-18 12:18 249 27.8
2019-Sep-18 12:13 134 0 28.3
2019-Sep-18 12:08 253 28.3
2019-Sep-18 12:03 179 0 27.8
2019-Sep-18 11:58 212 3 27.8
2019-Sep-18 11:53 232 0 27.8
2019-Sep-18 11:48 219 6 27.8
2019-Sep-18 11:43 197 28.3
2019-Sep-18 11:37 218 4 27.8
2019-Sep-18 11:32 200 0 28.3
2019-Sep-18 11:27 236 28.3
2019-Sep-18 11:22 248 28.3
2019-Sep-18 11:17 201 27.8
2019-Sep-18 11:12 200 1 27.8
2019-Sep-18 11:07 229 0 27.8
2019-Sep-18 11:02 208 1 27.2